Regional Weather Roundup
Issued by NWS

Home | Current Version | Previous Version | Text Only | Print | Product List | Glossary On
Versions: 1 2 3 4 5 6 7 8 9 10 11 12 13 14 15 16 17 18 19 20 21 22 23 24 25 26 27 28 29 30 31 32 33 34 35 36 37 38 39 40 41 42 43 44 45 46 47 48 49 50
000
ASUS43 KMPX 271901
RWRMN
WEATHER ROUNDUP FOR MINNESOTA
NATIONAL WEATHER SERVICE TWIN CITIES/CHANHASSEN MN
200 PM CDT MON APR 27 2015


NOTE: "FAIR" INDICATES FEW OR NO CLOUDS BELOW 12,000 FEET WITH NO
SIGNIFICANT WEATHER AND/OR OBSTRUCTIONS TO VISIBILITY. N/A MEANS
CURRENT SKY AND/OR WEATHER CONDITIONS ARE NOT AVAILABLE.

MNZ060>063-068>070-272000-
   Twin Cities Metro

CITY           SKY/WX    TMP DP  RH WIND       PRES   REMARKS
TWIN CITIES    SUNNY     65  29  25 N7        30.20F
ST PAUL        SUNNY     64  25  22 CALM      30.20F
CRYSTAL        SUNNY     67  24  19 N9        30.19F
BLAINE         SUNNY     66  27  22 NW8       30.20F
LAKEVILLE      SUNNY     63  28  27 N8        30.20F
EDEN PRAIRIE   SUNNY     65  28  24 MISG      30.19F
SOUTH ST PAUL  SUNNY     64  27  24 N8        30.20F
LAKE ELMO      FAIR      64  30  27 N10G17    30.20F
$$
MNZ001>005-007-008-013>017-022>024-027-028-272000-
   Northwest Minnesota

CITY           SKY/WX    TMP DP  RH WIND       PRES   REMARKS
BEMIDJI        MOSUNNY   68  29  23 W6        30.18F
HALLOCK        PTSUNNY   64  39  39 N12       30.20F
ROSEAU         PTSUNNY   68  39  34 W10       30.18F
WARROAD        MOSUNNY   68  37  32 W8G16     30.17F
THIEF RVR FALL MOSUNNY   68  32  26 SW10      30.19F
CROOKSTON      PTSUNNY   70  32  24 W10       30.19F
FOSSTON        MOSUNNY   70  28  21 CALM      30.19F
DETROIT LAKES  MOSUNNY   66  27  22 SW5       30.21F
MOORHEAD       MOSUNNY   68  21  17 W7        30.20F
PARK RAPIDS    SUNNY     70  22  16 VRB7      30.18F
MAHNOMEN       FAIR      66  26  22 W5        30.19F
$$
MNZ006-009>011-018-025>026-272000-
   North Central Minnesota

CITY           SKY/WX    TMP DP  RH WIND       PRES   REMARKS
BAUDETTE       PTSUNNY   69  26  20 NW8       30.17F
FLAG ISLAND    CLOUDY    57  28  33 CALM      30.18F
INTL FALLS     MOSUNNY   67  26  21 VRB5      30.19F
WASKISH        PTSUNNY   66  34  30 CALM      30.19F
BIG FORK       SUNNY     66  21  18 CALM      30.18F
LONGVILLE      MOSUNNY   68  21  17 N6        30.19F
GRAND RAPIDS   MOSUNNY   64  19  17 CALM      30.19F
CRANE LAKE     SUNNY     63  23  22 N7        30.21F
ORR            MOSUNNY   64  14  14 CALM      30.16F
COOK           SUNNY     64  27  24 E7        30.18F
WALKER         FAIR      64  28  24 SE3       30.19F
$$
MNZ012-019>021-037-272000-
   Northeast Minnesota

CITY           SKY/WX    TMP DP  RH WIND       PRES   REMARKS
DULUTH         SUNNY     63  26  24 S6        30.18F
ELY            SUNNY     61  23  23 W6        30.18F
HIBBING        SUNNY     66  20  17 MISG      30.18F
EVELETH        SUNNY     63  25  23 W5        30.19F
DULUTH HARBOR  SUNNY     48  32  53 NE3       30.20F
TWO HARBORS    SUNNY     64  37  36 S8        30.17F
SILVER BAY     SUNNY     63  30  29 S6        30.16F
GRAND MARAIS     N/A     40  33  76 SW7       30.21S
G MARAIS ARPRT SUNNY     57  27  30 SE7       30.19S
$$
MNZ029>031-032-039>041-046>048-054>057-064-272000-
   West Central Minnesota

CITY           SKY/WX    TMP DP  RH WIND       PRES   REMARKS
FERGUS FALLS   SUNNY     66  12  12 E3        30.21F
WHEATON        SUNNY     64  23  20 E3        30.22F
MORRIS         SUNNY     68  21  17 N5        30.20F
ALEXANDRIA     SUNNY     65  24  21 VRB5      30.22F
ELBOW LAKE     FAIR      65  24  21 CALM      30.21S
WADENA         SUNNY     66  28  24 NW7       30.19F
GLENWOOD       SUNNY     64  23  20 NW3       30.21F
APPLETON       SUNNY     68  18  14 W5        30.21F
BENSON         SUNNY     66  12  12 E5        30.21F
ORTONVILLE     SUNNY     66  18  15 CALM      30.21F
MADISON        SUNNY     66  18  15 E5        30.21F
WILLMAR        FAIR      66  23  19 NW8       30.22F
$$
MNZ033>034-036-042>043-049>051-058-059-272000-
   Central Minnesota

CITY           SKY/WX    TMP DP  RH WIND       PRES   REMARKS
ST CLOUD       SUNNY     66  21  18 MISG      30.19F
SAUK CENTRE    FAIR      64  25  23 NW6       30.21F
PAYNESVILLE    SUNNY     63  24  22 W10       30.21F
AITKIN         SUNNY     70  -4   5 NW3       30.17F
PINE RIVER     SUNNY     66  30  26 NW8       30.21F
BRAINERD       SUNNY     67  22  18 N9G17     30.19F
STAPLES        SUNNY     66  21  18 NW9       30.19F
LONG PRAIRIE   FAIR      64  25  22 NW5       30.21F
LITTLE FALLS   SUNNY     64  19  17 NE7       30.19F
LITCHFIELD     SUNNY     66  25  20 NW8       30.20F
BUFFALO        SUNNY     65  22  19 N8        30.21F
MAPLE LAKE     SUNNY     66  28  23 CALM      30.20F
$$
MNZ037-044-045-052-053-272000-
   East Central Minnesota

CITY           SKY/WX    TMP DP  RH WIND       PRES   REMARKS
PRINCETON      SUNNY     66  25  20 N12G17    30.20F
MORA           SUNNY     64  21  19 N7        30.21F
CAMBRIDGE      SUNNY     66  39  37 CALM      30.17F
RUSH CITY      SUNNY     65  25  21 NW5       30.19F
MOOSE LAKE     SUNNY     64  28  25 CALM      30.17F
HINCKLEY       FAIR      66  27  22 N8        30.18F
CLOQUET        SUNNY     64  18  16 N6        30.18F
MCGREGOR       SUNNY     64  23  20 CALM      30.19F
$$
MNZ071>073-080-081-089-090-097-098-272000-
   Southwest Minnesota

CITY           SKY/WX    TMP DP  RH WIND       PRES   REMARKS
MONTEVIDEO     SUNNY     72  23  16 SE3       30.21F
GRANITE FALLS  SUNNY     66  23  19 E5        30.22F
CANBY          SUNNY     65  24  20 SE6       30.22F
MARSHALL       SUNNY     64  21  19 E6        30.20F
REDWOOD FALLS  SUNNY     67  20  16 NE9       30.20F
OLIVIA         SUNNY     64  23  20 NW5       30.20F
PIPESTONE      SUNNY     64  19  17 NE6       30.21S
WORTHINGTON    SUNNY     63  25  23 NE5       30.21F
JACKSON        SUNNY     64  21  19 N7G18     30.21F
TRACY          SUNNY     65  22  19 CALM      30.21F
SLAYTON        SUNNY     64  21  19 CALM      30.21F
$$
MNZ065>067-074>077-082>085-091>093-272000-
   South Central Minnesota

CITY           SKY/WX    TMP DP  RH WIND       PRES   REMARKS
MANKATO        SUNNY     64  28  25 N8G16     30.21F
NEW ULM        SUNNY     64  23  20 N8        30.19F
ST JAMES       SUNNY     66  18  15 NE12      30.21F
FAIRMONT       SUNNY     64  27  24 NE13G18   30.19F
GLENCOE        SUNNY     65  28  24 NW5       30.20F
FARIBAULT      SUNNY     64  27  24 NW9G18    30.20F
OWATONNA       SUNNY     64  27  24 N13       30.20F
WASECA         SUNNY     63  28  27 N5G21     30.22F
ALBERT LEA     SUNNY     63  27  25 N13       30.20S
$$
MNZ078>079-086>088-094>096-272000-
   Southeast Minnesota

CITY           SKY/WX    TMP DP  RH WIND       PRES   REMARKS
ROCHESTER      SUNNY     61  34  36 N14       30.20F
RED WING       SUNNY     66  27  22 N5        30.18F
STANTON        SUNNY     66  26  22 N16       30.18F
DODGE CENTER   SUNNY     63  32  31 N10G22    30.19F
WINONA         SUNNY     63  32  31 NW10      30.17F
AUSTIN         SUNNY     61  34  36 NE10      30.19F
PRESTON        SUNNY     59  32  36 N12G20    30.18F
$$
ABBREVIATIONS USED IN REMARKS
   TC - TEMPERATURES IN CELSIUS
  WCI - WIND CHILL INDEX
   HX - HEAT INDEX
  VSB - VISIBILITY
$$



USA.gov is the U.S. government's official web portal to all federal, state and local government web resources and services.